{"data":{"norad_id":65838,"epoch":"2026-09-20T23:36:52.371072Z","epoch_age_seconds":64294,"freshness":"FRESH","line1":"1 65838U 25221R   26263.98393948  .00010821  00000+0  33091-3 0  9994","line2":"2 65838  53.1597 259.1122 0001482  80.4901 279.6269 15.34402666 54660","mean_motion":15.34402666,"eccentricity":0.0001482,"inclination_deg":53.1597,"raan_deg":259.1122,"arg_perigee_deg":80.4901,"mean_anomaly_deg":279.6269,"bstar":0.00033091,"rev_number":5466,"period_min":93.847595022362,"perigee_km":461.68150495547,"apogee_km":463.70912765402,"semimajor_km":6840.8323163047,"source":"CELESTRAK","updated_at":"2026-09-21T09:00:35.722275Z"}}